Regional Weather Roundup
Issued by NWS Kansas City/Pleasant Hill, MO

Home | Current Version | Previous Version | Graphics & Text | Print | Product List | Glossary Off
Versions: 1 2 3 4 5 6 7 8 9 10 11 12 13 14 15 16 17 18 19 20 21 22 23 24 25 26 27

000
ASUS43 KEAX 241810
RWREAX

WEATHER ROUNDUP FOR EASTERN KANSAS AND NORTHWEST MISSOURI
NATIONAL WEATHER SERVICE KANSAS CITY/PLEASANT HILL MO
100 PM CDT SAT SEP 24 2016

KSZ040-057-103>105-MOZ028-029-037-043-241900-
...KANSAS CITY METROPOLITAN AREA...

CITY           SKY/WX    TMP DP  RH WIND       PRES   REMARKS
K.C. INTL      MOSUNNY   86  71  60 S15       30.02F HX  91
6HR MIN TEMP:  70; 6HR MAX TEMP:  86;

K.C. DOWNTOWN  MOSUNNY   89  70  53 S13       30.01F HX  94
6HR MIN TEMP:  73; 6HR MAX TEMP:  89;

LEES SUMMIT    PTSUNNY   85  70  60 S10       30.04F
6HR MIN TEMP:  70; 6HR MAX TEMP:  86;

OLATHE - IXD   MOSUNNY   85  72  65 S12       30.02F HX  91
6HR MIN TEMP:  69; 6HR MAX TEMP:  85;

OLATHE - OJC   MOSUNNY   83  70  64 S12       30.03F
6HR MIN TEMP:  67; 6HR MAX TEMP:  84;

LAWRENCE       MOSUNNY   87  72  60 S17G26    29.99F HX  93

$$

MOZ001>008-011>017-020>025-030>033-038>040-044>046-053-054-241900-
...NORTHERN AND CENTRAL MISSOURI...

CITY           SKY/WX    TMP DP  RH WIND       PRES   REMARKS
ST. JOSEPH     PTSUNNY   87  71  58 S17G23    29.99F HX  93
6HR MIN TEMP:  70; 6HR MAX TEMP:  88;

MOSBY          PTCLDY    88  68  51 S9G17     30.02F HX  91
WHITEMAN AFB   MOSUNNY   87  74  63 S9        30.04F HX  95
6HR MIN TEMP:  68; 6HR MAX TEMP:  87;

CLINTON        PTSUNNY   86  73  66 S9        30.06F HX  93
SEDALIA        MOSUNNY   88  72  58 S8        30.08F HX  94
6HR MIN TEMP:  67; 6HR MAX TEMP:  88;

WARSAW         NOT AVBL
CHILLICOTHE      N/A     86  72  62 SE8       30.05F HX  92
6HR MIN TEMP:  69; 6HR MAX TEMP:  87;

KIRKSVILLE     SUNNY     85  68  56 S8        30.09S
6HR MIN TEMP:  62; 6HR MAX TEMP:  86;


$$

MOZ041-047>049-056>058-063>065-088>090-097-241900-
...EASTERN AND SOUTHERN MISSOURI...

CITY           SKY/WX    TMP DP  RH WIND       PRES   REMARKS
ST. LOUIS INTL PTSUNNY   88  66  48 SE7       30.10F HX  90
6HR MIN TEMP:  74; 6HR MAX TEMP:  90;

SPIRIT OF STL  MOSUNNY   88  66  48 CALM      30.08F HX  90
COLUMBIA       SUNNY     86  70  58 S6        30.09F HX  90
JEFFERSON CITY SUNNY     86  70  58 VRB7      30.07F HX  90
ROLLA          SUNNY     84  69  60 SW6       30.10F
OSAGE BEACH    MOSUNNY   87  71  58 VRB7      30.08F HX  93
SPRINGFIELD    MOSUNNY   88  67  49 VRB7      30.08F HX  91
BRANSON        PTSUNNY   88  68  51 SE7       30.10F HX  91
JOPLIN         MOSUNNY   87  71  58 S13       30.06F HX  93
WEST PLAINS    SUNNY     86  65  49 VRB6      30.13F

$$

IAZ060-094-KSZ022-034>040-054-083-096-NEZ052-066-093-241900-
...KANSAS...SOUTHEAST NEBRASKA AND IOWA...

CITY           SKY/WX    TMP DP  RH WIND       PRES   REMARKS
TOPEKA         MOSUNNY   87  70  56 S14G24    29.97F HX  92
6HR MIN TEMP:  71; 6HR MAX TEMP:  87;

MANHATTAN      LGT RAIN  79  72  79 W10       29.94S
EMPORIA        MOSUNNY   85  73  67 S17G24    29.98F HX  91
CHANUTE        SUNNY     88  70  55 S18       30.01F HX  93
WICHITA        TSTM      77  71  82 S16G30    29.94F
OMAHA          TSTM      73  68  84 S20G26    29.98R VSB 3/4
LINCOLN        LGT RAIN  75  72  90 S16       29.94F FOG
FALLS CITY     MOSUNNY   86  71  60 S20G25    29.95F HX  91
LAMONI         MOSUNNY   85  71  63 SE10      30.04F HX  90
DES MOINES     MOSUNNY   86  68  54 SE14      30.02F

$$





USA.gov is the U.S. government's official web portal to all federal, state and local government web resources and services.